Theta_e
316 319 318 318 318 317 317 316 316 316 316 317 318 317 317 317 317 316 314 315 320 325 327 329 329 329 328 328 327 326 325 324 323 322 322 321 322 321 320 320 320 320 319
318 318 318 319 318 318 318 317 316 315 315 315 316 316 316 317 316 317 316 315 319 323 326 328 330 330 331 331 330 330 328 327 325 324 323 323 322 322 321 320 320 320 320
319 319 318 318 318 318 317 316 315 314 313 314 313 315 315 315 315 315 316 316 316 318 322 326 328 330 331 331 332 332 332 330 329 327 326 324 323 322 322 321 321 320 320
322 318 318 318 318 317 316 314 313 313 314 314 313 314 314 312 312 314 314 315 315 316 319 322 325 327 329 330 331 332 332 332 331 330 329 328 327 325 324 323 322 321 321
326 323 320 318 317 316 315 315 315 315 314 314 313 311 311 313 311 312 312 313 313 314 314 317 319 320 324 327 329 330 331 331 332 331 331 329 329 328 327 326 325 325 323
327 326 325 323 321 319 317 317 316 313 314 311 312 313 313 311 311 309 311 312 311 310 311 312 313 313 317 322 325 327 329 330 330 330 330 330 330 329 328 328 327 326 325
328 327 326 325 324 320 319 318 317 315 314 314 311 311 309 311 309 310 308 309 308 310 309 309 310 311 313 318 321 324 326 328 329 329 329 330 330 330 331 330 328 328 327
328 326 325 324 323 322 321 320 317 314 313 313 312 308 305 309 309 309 309 308 308 308 308 309 308 309 310 311 312 318 322 324 325 325 326 327 327 326 327 328 331 332 330
329 326 325 324 323 321 320 319 318 315 314 313 312 311 305 303 309 312 310 309 309 307 307 307 307 307 308 309 311 313 316 318 321 321 322 322 322 322 324 325 325 326 327
321 323 323 322 321 321 320 319 318 317 315 312 311 309 311 310 305 303 307 307 310 307 306 308 308 308 308 308 308 307 309 313 315 317 317 318 319 320 321 322 322 323 323
308 309 311 312 314 315 316 313 312 310 312 313 311 310 306 306 302 302 300 303 306 308 308 308 308 309 309 308 307 307 308 311 312 312 314 315 316 317 318 319 320 320 321
302 302 301 302 302 302 302 303 303 303 303 304 304 303 302 303 303 302 300 300 299 301 302 303 304 306 306 305 307 304 306 309 311 311 311 312 313 314 315 317 317 318 318
295 295 296 296 297 297 298 298 298 298 298 297 298 298 300 300 302 302 300 298 297 298 298 299 302 302 304 304 306 302 303 307 309 310 310 310 311 311 312 313 314 315 315
293 293 293 293 294 294 294 294 294 294 294 293 292 293 295 296 298 298 298 295 291 292 293 293 297 299 299 300 301 300 302 303 306 307 308 308 309 310 310 310 311 311 312
292 291 291 291 291 291 292 292 291 291 291 291 290 291 291 293 294 294 295 295 293 287 287 289 290 294 295 297 298 298 298 299 302 303 304 304 305 305 306 307 308 309 310
289 289 289 288 289 289 289 289 288 290 290 289 289 288 289 290 290 291 291 292 292 291 287 290 291 292 293 294 294 295 294 295 297 299 301 301 302 302 303 304 305 306 307
288 287 287 287 287 287 287 287 287 288 287 286 287 286 287 287 287 288 288 289 289 288 286 287 289 290 290 290 291 292 293 293 295 297 297 299 299 300 300 300 302 303 304
286 286 286 285 286 286 286 285 285 286 285 285 285 285 285 287 285 286 286 285 286 287 286 283 286 287 287 289 289 289 291 292 292 294 296 297 297 297 298 298 299 299 300
284 285 285 284 284 284 284 285 286 286 285 285 285 284 284 284 283 284 284 284 285 286 286 284 284 286 286 287 286 287 288 289 290 292 293 293 294 294 295 295 296 296 296
283 283 283 283 283 283 284 285 285 284 284 285 285 285 284 283 283 284 284 284 285 284 284 284 283 284 285 286 286 285 285 287 286 288 289 290 292 293 292 293 292 292 292
281 281 281 281 281 282 284 283 283 283 284 284 284 284 284 284 285 286 284 284 284 284 284 283 282 283 283 283 282 284 283 284 285 286 286 287 286 287 288 290 288 288 289
280 280 280 280 280 282 285 286 285 283 284 283 283 283 284 284 285 286 286 287 287 284 284 283 282 281 281 282 283 283 282 282 278 283 283 283 285 285 286 284 287 288 288
279 279 279 279 279 279 284 285 285 283 283 283 283 283 283 283 284 284 285 287 287 287 287 285 282 282 282 284 284 283 281 280 279 282 283 280 281 280 281 281 285 286 287
277 277 278 278 277 279 283 285 285 283 283 283 283 283 283 283 284 284 285 284 284 285 284 284 284 284 285 284 282 280 279 277 279 281 281 276 276 278 277 277 284 285 287
275 275 277 274 273 275 282 284 284 281 282 281 282 283 282 283 285 287 284 283 283 283 285 286 287 286 284 283 282 275 273 273 274 272 279 277 276 275 272 275 280 286 292
275 275 274 273 272 269 280 283 283 279 273 281 283 284 283 285 286 288 285 283 281 282 281 277 277 277 279 277 280 274 273 270 271 270 276 274 275 274 271 277 279 278 285
Wind_Speed
4 3 2 3 3 3 3 3 3 2 3 3 4 4 4 5 5 3 2 7 10 14 15 14 14 15 15 15 16 17 17 17 18 17 18 18 19 18 19 18 18 18 18
4 3 3 3 3 3 3 2 2 2 3 3 5 5 6 5 5 5 4 4 9 14 18 19 19 18 19 19 18 20 20 20 20 20 21 21 21 21 22 22 22 22 21
4 3 3 2 3 2 2 1 1 1 2 3 5 5 5 6 5 6 5 5 6 11 15 20 22 22 22 22 23 23 25 25 25 25 25 25 26 25 25 26 26 25 25
5 3 2 3 2 1 2 2 2 3 4 3 3 4 4 5 6 7 6 6 5 6 9 17 20 24 25 25 24 28 27 26 28 27 26 26 27 29 28 29 29 29 28
5 4 3 3 3 3 4 2 2 3 3 3 4 4 5 6 7 6 9 9 8 8 7 11 15 18 23 26 27 29 30 27 30 27 27 28 30 30 30 30 30 30 31
5 4 3 3 2 2 2 2 2 2 3 4 5 7 6 6 5 5 8 6 6 7 6 8 7 8 15 22 26 27 30 30 31 29 29 28 28 31 32 33 34 33 34
5 5 3 3 3 3 3 3 1 3 3 2 2 4 4 7 6 6 4 6 6 8 5 6 6 6 8 19 22 24 26 29 30 30 29 30 29 30 32 32 37 36 38
5 4 4 4 4 3 4 4 3 1 2 2 3 2 4 5 2 4 5 5 7 4 5 6 6 8 8 7 11 22 24 26 28 30 30 30 30 31 32 33 34 35 35
4 4 4 3 3 3 3 2 3 4 3 2 4 3 4 3 10 2 5 5 5 4 5 6 6 7 9 8 12 14 21 25 27 28 29 30 32 33 33 33 34 32 33
8 7 5 3 2 2 3 2 2 2 2 3 2 2 4 4 6 9 1 4 6 6 6 6 6 7 10 8 11 13 19 23 25 27 29 29 30 31 31 31 32 33 33
8 7 7 6 5 4 4 6 4 5 3 2 2 2 2 2 3 3 15 8 9 5 6 6 6 8 8 9 9 10 17 21 23 24 25 27 29 30 30 31 32 32 32
5 7 7 6 6 5 6 5 5 6 5 4 4 4 3 4 6 5 10 16 15 8 3 6 5 6 6 6 10 14 18 22 24 25 25 25 27 29 30 30 31 33 31
4 6 5 6 5 6 6 5 6 6 5 4 5 3 3 3 3 5 8 12 14 11 6 3 5 5 6 5 6 12 13 18 22 25 25 25 26 27 28 30 33 32 32
4 5 5 6 6 6 6 5 4 4 5 4 6 5 4 4 4 4 6 11 16 11 10 7 2 4 4 5 8 15 11 16 20 23 25 27 30 30 29 31 31 32 32
4 5 6 6 6 6 6 6 4 5 5 4 5 6 4 4 4 4 4 4 8 13 20 4 4 4 5 7 10 13 14 18 23 25 26 28 28 30 31 31 32 31 31
5 6 6 6 6 6 5 5 4 4 5 4 4 6 5 3 5 4 4 4 4 9 16 10 11 12 11 11 17 16 17 21 23 26 26 28 29 30 31 31 31 30 29
6 6 5 5 5 5 6 5 5 5 5 5 4 5 6 5 5 5 4 4 6 6 13 19 11 13 18 17 17 17 15 15 11 19 25 28 29 29 30 31 32 31 30
5 5 5 5 5 4 3 4 5 5 6 6 6 7 8 7 8 7 6 9 9 10 10 19 18 17 18 17 17 18 13 11 12 18 26 28 29 29 29 29 30 30 30
5 5 5 5 4 5 5 5 5 5 6 6 5 6 7 8 9 9 10 9 9 9 9 11 16 12 14 12 15 14 14 13 8 16 23 27 28 29 28 30 29 28 25
5 4 4 4 5 5 4 5 5 5 5 7 8 9 9 9 10 10 9 9 9 9 10 10 11 14 12 12 11 12 14 11 13 12 16 17 22 21 27 27 28 25 24
4 3 4 5 4 4 5 6 5 6 8 8 8 8 8 8 12 14 9 10 10 8 9 10 11 12 12 13 12 11 13 14 12 10 11 8 12 10 11 16 15 21 25
4 5 5 5 6 4 9 10 9 7 7 8 8 8 7 6 10 18 18 18 16 11 12 10 11 12 15 14 12 12 11 11 13 7 11 13 9 9 7 7 20 25 25
4 5 5 5 5 5 9 9 11 5 6 6 8 8 7 5 8 9 13 16 13 15 17 12 14 14 15 14 12 13 12 12 12 13 10 8 4 9 8 7 21 24 23
4 3 4 4 4 4 9 9 9 4 5 6 6 6 6 7 8 10 10 9 9 8 7 6 8 10 9 10 9 9 10 10 10 6 9 5 4 10 6 6 23 25 22
3 2 2 4 3 5 10 9 8 3 4 5 6 7 6 8 12 18 10 9 7 6 7 14 14 15 14 15 14 7 9 9 9 3 8 7 4 7 3 6 13 31 19
1 1 3 3 5 4 9 11 9 2 4 5 7 5 10 12 18 19 8 5 8 4 6 7 6 7 7 7 11 3 5 6 5 4 6 9 5 5 6 4 11 13 13
Wind_Direction
171 180 193 195 199 191 197 217 240 255 281 290 294 291 290 275 275 277 276 274 258 260 267 270 269 264 266 261 259 259 256 253 251 251 248 248 247 241 245 240 239 241 238
174 182 193 202 207 206 211 218 237 267 279 294 288 282 278 285 286 287 276 268 260 256 258 264 268 269 267 269 255 252 251 250 255 250 250 247 248 250 247 242 237 237 238
189 189 194 206 225 217 212 219 252 253 277 282 284 291 300 295 289 278 265 251 254 251 254 259 262 266 268 268 269 262 255 247 245 241 240 238 237 239 243 243 245 236 234
169 178 200 235 247 243 224 221 244 283 274 262 273 281 275 277 273 264 263 260 255 260 259 257 261 263 266 268 270 272 270 269 261 251 244 240 238 238 238 237 238 241 237
191 178 185 225 205 207 216 216 239 237 283 286 278 284 272 272 268 272 263 269 264 261 267 270 260 263 267 270 270 276 276 276 276 272 264 253 243 239 236 236 236 235 237
200 194 211 234 216 237 251 255 268 267 259 280 292 283 278 266 257 256 265 275 272 260 252 261 267 267 261 269 274 276 276 276 278 277 278 274 266 257 248 240 234 232 233
206 214 224 245 230 239 250 234 249 276 291 273 288 287 280 259 258 260 268 264 266 265 263 254 254 258 271 272 275 280 283 284 283 283 282 280 280 276 267 260 245 235 235
204 205 220 230 224 238 248 246 217 260 259 211 265 256 298 299 336 279 259 263 261 277 274 267 260 260 263 268 267 275 282 284 288 289 290 292 290 290 286 283 278 272 253
223 223 246 254 262 231 262 256 246 218 258 262 221 263 311 287 318 242 285 282 269 271 270 273 267 263 268 264 269 270 275 279 285 288 289 292 293 294 292 290 288 285 285
49 45 43 21 344 320 326 325 333 288 281 305 317 250 258 291 311 314 324 291 290 297 281 280 275 284 279 276 270 266 269 275 279 282 282 286 287 288 290 291 291 291 289
49 43 39 40 44 38 37 41 18 23 22 330 334 308 287 284 264 284 311 317 296 284 268 256 254 270 262 267 276 273 269 268 269 273 282 286 292 296 295 295 294 291 290
59 43 42 46 38 38 35 29 27 31 16 4 358 352 337 322 319 307 299 308 303 302 298 288 268 261 261 260 272 271 276 284 288 288 287 288 290 292 294 293 296 293 292
37 36 36 40 36 34 37 29 33 35 21 23 9 339 333 321 310 314 308 307 306 306 300 280 266 267 271 276 280 283 279 283 291 295 296 294 294 292 291 294 292 288 290
82 54 52 51 44 38 34 35 34 26 24 25 11 359 321 324 327 318 317 319 314 303 303 277 284 298 324 307 309 303 306 296 294 296 298 298 302 297 298 296 293 292 289
84 72 60 51 37 36 31 26 24 21 17 10 351 346 333 319 319 315 312 313 313 314 306 330 336 335 326 326 316 315 307 306 306 310 304 301 301 299 299 298 295 295 293
80 69 60 57 48 33 26 26 16 12 14 357 349 334 325 316 312 304 305 304 294 293 293 325 319 325 328 318 315 312 310 303 305 303 304 307 302 300 297 296 295 294 295
71 68 58 53 52 32 18 17 8 14 4 341 339 335 320 322 332 328 323 312 305 296 288 301 311 321 319 317 314 312 306 304 302 302 300 299 299 303 304 302 298 294 293
76 73 54 46 36 25 15 14 7 2 359 344 336 337 334 339 335 333 332 324 316 311 300 299 311 314 313 314 305 302 299 293 293 297 301 306 309 305 303 302 301 299 294
76 61 52 43 28 11 10 12 5 347 335 326 329 329 327 334 335 335 329 321 317 310 302 297 301 305 298 304 305 301 302 304 305 311 311 308 301 299 300 301 302 303 301
74 59 48 40 28 10 15 13 354 341 329 342 342 341 338 339 332 323 321 311 308 304 302 291 293 302 306 314 308 314 312 317 314 306 294 290 292 301 305 302 303 306 308
72 52 43 36 25 20 18 2 1 355 345 336 338 339 334 317 309 319 321 314 310 302 300 299 301 306 316 322 323 317 304 309 308 304 302 307 307 302 295 304 314 312 307
52 44 31 20 13 11 359 2 0 344 338 338 337 336 325 300 303 322 322 315 311 314 314 313 311 309 314 318 313 315 311 329 318 308 319 310 305 310 318 304 314 315 311
51 39 23 14 357 342 348 348 350 345 333 330 325 326 319 303 297 298 304 307 300 296 306 313 309 313 311 313 315 331 328 321 312 311 321 308 360 321 317 316 322 320 314
52 35 5 345 346 324 349 346 344 335 322 297 289 296 283 298 301 315 316 310 303 297 307 300 301 312 322 346 341 329 320 311 303 320 2 303 331 321 322 314 336 332 313
54 12 334 326 325 308 341 342 344 289 279 297 297 294 299 311 310 323 320 309 315 315 305 329 334 344 350 356 6 345 354 339 329 318 17 327 326 313 330 329 345 355 54
92 18 333 302 302 297 340 350 351 314 339 318 303 299 309 328 322 326 323 326 323 335 332 337 334 339 344 339 2 27 336 340 326 326 5 338 332 344 337 341 360 7 44